Location: Asheville, NC
(35.6000°N, 82.5500°W)
Time: 13:35:27
(UTC-05:00)

CUTE 1.7 + AOD 2 - Pass Details

Date: 17 February 2018
Orbit: 594 x 614 km, 97.6° (Epoch: 21 February)

Event Time Altitude Azimuth Distance (km) Brightness Sun altitude
Rises 19:47:25 0° 211° (SSW) 2,827 ? -19.6°
Reaches altitude 10° 19:50:39 10° 238° (WSW) 1,927 ? -20.2°
Maximum altitude 19:52:40 13° 267° (W) 1,722 ? -20.6°
Drops below altitude 10° 19:54:43 10° 297° (WNW) 1,930 ? -21.1°
Sets 19:57:58 0° 324° (NW) 2,835 ? -21.7°
